Wheeling, WV

6:32 PM EST on February 22, 2018 (GMT -0500)
Wheeling-Ohio County

Weather History for KHLG - April, 2013

Change the Weather History Date:

Thursday, April 11, 2013

  Actual Average Record
Temperature  
Mean Temperature 66 °F 50 °F  
Max Temperature 75 °F 60 °F 76 °F (2002)
Min Temperature 56 °F 40 °F 32 °F (1952)
Degree Days  
Heating Degree Days 0 15  
Month to date heating degree days 168 188  
Since 1 July heating degree days 5066 5128  
Cooling Degree Days 1    
Month to date cooling degree days 11  
Year to date cooling degree days 11  
Growing Degree Days 15 (Base 50)    
Moisture  
Dew Point 55 °F    
Average Humidity 75    
Maximum Humidity 100    
Minimum Humidity 49    
Precipitation  
Precipitation T in 0.11 in 0.90 in (1990)
Month to date precipitation 0.27 1.14  
Sea Level Pressure  
Sea Level Pressure 29.78 in    
Wind  
Wind Speed 7 mph (SE)    
Max Wind Speed 16 mph    
Max Gust Speed 23 mph    
Visibility 8 miles    
Events Fog , Rain    
T = Trace of Precipitation, MM = Missing Value Source: NWS Daily Summary

Daily Weather History Graph

Daily Weather History Graph

Search for Another Location

Airport or City:

Trip Planner

Search our weather history database for the weather conditions in past years. The results will help you decide how hot, cold, wet, or windy it might be!

Date:

Astronomy

Apr. 11, 2013 Rise Set
Actual Time 6:50 AM EDT 7:57 PM EDT
Civil Twilight 6:22 AM EDT 8:25 PM EDT
Nautical Twilight 5:49 AM EDT 8:58 PM EDT
Astronomical Twilight 5:14 AM EDT 9:33 PM EDT
Moon 7:20 AM EDT (4/11) 9:30 PM EDT (4/11)
Length of Visible Light 14h 03m
Length of Day
13h 07m
New Moon, 2% of the Moon is Illuminated
Apr 11
New Moon
Apr 18
First Quarter
Apr 25
Full
May 2
Last Quarter
May 9
New

Hourly Weather History & Observations

Time (EDT) Temp. Dew Point Humidity Pressure Visibility Wind Dir Wind Speed Gust Speed Precip Events Conditions
12:53 AM 59.0 °F 57.0 °F 93% 29.86 in 10.0 mi SE 3.5 mph - 0.01 in   Mostly Cloudy
1:53 AM 59.0 °F 57.0 °F 93% 29.90 in 10.0 mi Calm Calm - N/A   Mostly Cloudy
2:46 AM 57.2 °F 55.4 °F 94% 29.89 in 1.5 mi SE 3.5 mph - N/A   Mostly Cloudy
2:48 AM 57.2 °F 55.4 °F 94% 29.89 in 0.8 mi ESE 4.6 mph - N/A   Mostly Cloudy
2:53 AM 57.0 °F 55.9 °F 96% 29.88 in 0.2 mi ESE 3.5 mph - N/A Fog Fog
3:19 AM 55.4 °F 55.4 °F 100% 29.87 in 0.2 mi ESE 6.9 mph - N/A Fog Fog
3:29 AM 55.4 °F 55.4 °F 100% 29.86 in 0.2 mi SE 5.8 mph - N/A Fog Fog
3:38 AM 57.2 °F 55.4 °F 94% 29.86 in 1.0 mi SE 6.9 mph - N/A   Mist
3:40 AM 57.2 °F 55.4 °F 94% 29.86 in 2.5 mi SE 6.9 mph - N/A   Partly Cloudy
3:53 AM 55.9 °F 55.9 °F 100% 29.84 in 8.0 mi SE 5.8 mph - N/A   Clear
4:53 AM 57.0 °F 55.0 °F 93% 29.82 in 10.0 mi SE 4.6 mph - N/A   Clear
5:53 AM 57.9 °F 54.0 °F 87% 29.80 in 10.0 mi SE 4.6 mph - N/A   Clear
6:53 AM 59.0 °F 54.0 °F 83% 29.80 in 10.0 mi South 5.8 mph - N/A   Clear
7:53 AM 59.0 °F 55.0 °F 87% 29.82 in 10.0 mi SSE 3.5 mph - N/A   Partly Cloudy
8:53 AM 62.1 °F 55.0 °F 78% 29.82 in 10.0 mi SSE 9.2 mph - N/A   Partly Cloudy
9:53 AM 64.9 °F 55.9 °F 73% 29.82 in 10.0 mi SSW 9.2 mph - N/A   Clear
10:53 AM 66.0 °F 55.0 °F 68% 29.83 in 10.0 mi SW 6.9 mph - N/A   Clear
11:53 AM 71.1 °F 55.9 °F 59% 29.83 in 10.0 mi West 10.4 mph 18.4 mph N/A   Scattered Clouds
1:53 PM 69.1 °F 55.9 °F 63% 29.81 in 10.0 mi South 5.8 mph - 0.00 in Rain Light Rain
3:53 PM 73.9 °F 55.0 °F 52% 29.73 in 10.0 mi West 6.9 mph - N/A   Partly Cloudy
4:53 PM 75.0 °F 55.0 °F 50% 29.70 in 10.0 mi WSW 6.9 mph - N/A   Clear
5:53 PM 73.9 °F 54.0 °F 50% 29.68 in 10.0 mi SSW 3.5 mph - N/A   Clear
6:53 PM 73.9 °F 54.0 °F 50% 29.67 in 10.0 mi Calm Calm - N/A   Clear
7:53 PM 71.1 °F 54.0 °F 55% 29.66 in 10.0 mi East 5.8 mph - N/A   Clear
8:53 PM 64.9 °F 57.0 °F 75% 29.64 in 10.0 mi NE 10.4 mph - N/A   Clear
9:53 PM 64.9 °F 57.0 °F 75% 29.60 in 10.0 mi ENE 13.8 mph - N/A   Clear
10:53 PM 64.9 °F 55.9 °F 73% 29.57 in 10.0 mi ENE 8.1 mph - N/A   Clear
11:53 PM 63.0 °F 54.0 °F 72% 29.56 in 10.0 mi East 8.1 mph - N/A   Overcast